Location: Acton
(51.4942°N, 0.2232°W)
Time: 14:11:01
(UTC+00:00)

Okean 1-7 Rocket - Pass Details

Date: 24 January 2021
Orbit: 615 x 650 km, 82.5° (Epoch: 28 February)

Event Time Altitude Azimuth Distance (km) Brightness Sun altitude
Rises 19:02:14 0° 221° (SW) 2,955 7.7 -22.3°
Reaches altitude 10° 19:04:45 10° 233° (SW) 2,053 7.0 -22.7°
Maximum altitude 19:08:39 27° 292° (WNW) 1,246 5.7 -23.3°
Drops below altitude 10° 19:12:36 10° 351° (N) 2,068 6.3 -23.9°
Sets 19:15:10 0° 3° (N) 2,983 7.0 -24.3°
